Showing default

MEV-2, 46113

Orbit data source: Space-Track

MEV-2, 46113 is a payload satellite owned by Space Logistics (US) in GEO that was launched on Sat, 15 Aug 2020 UTC via an ARIANE 5ECA+ launch vehicle from the French Guiana (FRGUI). Payload-class satellites include a variety of spacecraft equipped with specific instruments for various scientific and technological missions. These include communications satellites like Starlink; space stations such as the ISS; scientific satellites like the Hubble; Earth observation satellites from companies like Planet Labs, Umbra, and HawkEye 360; GPS; miniature CubeSats for education and research; and military/defense satellites.

Not visible in the next 10 days
Identifier
46113, 2020-056B
Orbit
GEO
Country
Flag of USUS
Related business
Manufacturer
NGIS SSG
Mission
Operational Commercial Technology
Bus & Motor
GEOSTAR-3, IHI BT-4?
Mass
2,326 kg wet, ~2,000 kg dry
Launch date (UTC)
2020-08-15 (6 years ago)
Launch vehicle
ARIANE 5ECA+
Launch site
French Guiana (FRGUI)
Object type
Payload
Rocket body
Debris
Shape & HBR
Unknown shape, 22.5 m
Radar Cross Section
Large (>1 m²)

Expand to show TLE details & history
Last TLE update: 2 days ago

TLE from 2 days ago
0 MEV-2
1 46113U 20056B   26171.39181049 -.00000016  00000-0  00000+0 0  9997
2 46113   0.0164 305.9154 0000101 152.4907 310.2364  1.00270649 80584
Epoch: 2026-06-20T09:24Z
TLE epoch observation values (Epoch: 2026-06-20T09:24:12.426Z)
Latitude
0.02746°
Longitude
-1.00501°
Altitude
35,786.124 km
Speed
3.075 km/s
True Right ascension
03h 14m 36s
True Declination
0° 01' 39"
Sunlit
Object was in daylight at epoch
Visualization orbit readout
Latitude
Unknown
Longitude
Unknown
Altitude
Unknown
Speed
Unknown
Apparent Right ascension
Unknown
Apparent Declination
Unknown
Sunlit
N/A
Visualization observer readout
Local Sidereal Time
23:07:43
Azimuth
Unknown
Elevation
Unknown
Doppler factor
Unknown
Orbital elements
Apogee altitude
35,788.41 km
Perigee altitude
35,787.558 km
Semi-major axis
42,166.121 km
Eccentricity
0.00001
Inclination
0.0164°
RAAN
305.9154°
Arg. of periapsis
152.4907°
True anomaly
310.23552°
Mean anomaly
310.2364°
Eccentric anomaly
310.23596°
Mean motion
0.25067 °/min
Orbital period
1,436.17 mins
BSTAR
0
Loading maneuver chart data...
Computing Atmospheric mass density...
Loading historical data...
Loading historical data...
Loading historical data...
Loading historical data...
Loading historical data...
Loading historical data...
Loading historical data...
Other satellites on launch #56 in the year 2020 (2020-08-15 UTC)

Documentation

Showing up to 5 results
|